TIROS 2 DEB *, 5922

Orbit data source: Space-Track

TIROS 2 DEB *, 5922 is space debris in LEO originally from a launch on Wed, 23 Nov 1960 UTC launched from the Air Force Eastern Test Range (AFETR). Debris objects in space refer to the collection of defunct objects orbiting the Earth. Examples of debris include non-operational satellites, rocket bodies, and fragments generated from explosions, collisions, or faulty payload assembly.

Loading next visibility...
Identifier
5922, 1960-016E
Orbit
LEO
Last TLE update
20 hours ago
Origin
Manufacturer
Unknown
Mission
Spacecraft
Bus & Motor
Unknown
Mass
Unknown
Launch date (UTC)
1960-11-23 (65 years ago)
Launch vehicle
Unknown
Launch site
Air Force Eastern Test Range (AFETR)
Object type
Payload
Rocket body
Debris
Shape & HBR
Unknown
Radar Cross Section
Small (<0.1 m²)

Expand to show TLE details & history

TLE from 20 hours ago
0 TIROS 2 DEB *
1 05922U 60016E   25181.28735512 -.00000088  00000-0  47844-4 0  9999
2 05922  47.0295 149.8712 0040028  47.5335  89.2803 13.70015350703195
Epoch: 2025-06-30T06:53Z
TLE epoch observation values (Epoch: 2025-06-30T06:53:47.482Z)
Latitude
29.86417°
Longitude
-84.3247°
Altitude
1,000.306 km
Speed
7.356 km/s
True Right ascension
19h 50m 53s
True Declination
29° 43' 15"
Sunlit
Object was in full shadow at epoch
Visualization orbit readout
Latitude
-40.3135°
Longitude
72.57282°
Altitude
1,023.476 km
Speed
7.335 km/s
Apparent Right ascension
04h 34m 42s
Apparent Declination
-43° 30' 26"
Sunlit
Object is in daylight
Visualization observer readout
Local Sidereal Time
14:33:29
Azimuth
250.97° W
Elevation
-67.222°
Doppler factor
1
Orbital elements
Apogee altitude
1,030.232 km
Perigee altitude
971.16 km
Semi-major axis
7,378.833 km
Eccentricity
0.004
Inclination
47.0295°
RAAN
149.8712°
Arg. of periapsis
47.5335°
True anomaly
Unknown
Mean anomaly
89.2803°
Eccentric anomaly
Unknown
Mean motion
3.42422 °/min
Orbital period
105.13 mins
BSTAR
0.000047844
Loading maneuver chart data...
Loading SW <> Apogee altitude chart data...
Loading historical data...
Loading historical data...
Loading historical data...
Loading historical data...
Loading historical data...
Loading historical data...
Loading historical data...
Other satellites on launch #16 in the year 1960 (1960-11-23 UTC)

TIROS 2 DEB * Visibility forecast

Observer location: undefined°, undefined°

Span
Click to sort rows by Start time (UTC) header in descending order
Start Az.
Max El. time (UTC)
Max El. Az.
Max El.
End time (UTC)
End Az.
11 mins2025-07-01 03:33:16.074Z283.956° WNW2025-07-01 03:38:16.074Z343.005° N35.51°2025-07-01 03:44:16.074Z65.21° ENE
11 mins2025-07-01 05:25:16.074Z302.848° NW2025-07-01 05:30:16.074Z25.655° NE39.462°2025-07-01 05:36:16.074Z93.838° ESE
11 mins2025-07-01 07:15:16.074Z292.52° NW2025-07-01 07:20:16.074Z232.813° WSW41.357°2025-07-01 07:26:16.074Z137.74° SSE
5 mins2025-07-01 09:08:16.074Z250.855° W2025-07-01 09:10:16.074Z230.425° WSW15.162°2025-07-01 09:13:16.074Z201.415° SSW
4 mins2025-07-01 22:39:16.074Z143.032° SSE2025-07-01 22:40:16.074Z133.002° SE13.6°2025-07-01 22:43:16.074Z103.578° ESE
11 mins2025-07-02 00:25:16.074Z218.591° SW2025-07-02 00:30:16.074Z141.442° SSE40.73°2025-07-02 00:36:16.074Z66.694° ENE
10 mins2025-07-02 02:16:16.074Z269.979° W2025-07-02 02:21:16.074Z1.621° NNE39.454°2025-07-02 02:26:16.074Z59.569° ENE
|